Year,Month,Day,Hour,Minute,Value (Times are PST for windgust in km/hr)
2012,03,12,00,00,33.80
2012,03,12,00,01,38.60
2012,03,12,00,02,33.80
2012,03,12,00,03,24.20
2012,03,12,00,04,27.40
2012,03,12,00,05,40.20
2012,03,12,00,06,33.80
2012,03,12,00,07,27.40
2012,03,12,00,08,43.50
2012,03,12,00,09,46.70
2012,03,12,00,10,24.20
2012,03,12,00,11,40.20
2012,03,12,00,12,33.80
2012,03,12,00,13,35.40
2012,03,12,00,14,35.40
2012,03,12,00,15,45.10
2012,03,12,00,16,43.50
2012,03,12,00,17,43.50
2012,03,12,00,18,29.00
2012,03,12,00,19,33.80
2012,03,12,00,20,35.40
2012,03,12,00,21,38.60
2012,03,12,00,22,37.00
2012,03,12,00,23,37.00
2012,03,12,00,24,27.40
2012,03,12,00,25,33.80
2012,03,12,00,26,37.00
2012,03,12,00,27,43.50
2012,03,12,00,28,38.60
2012,03,12,00,29,33.80
2012,03,12,00,30,38.60
2012,03,12,00,31,35.40
2012,03,12,00,32,37.00
2012,03,12,00,33,32.20
2012,03,12,00,34,40.20
2012,03,12,00,35,38.60
2012,03,12,00,36,27.40
2012,03,12,00,37,45.10
2012,03,12,00,38,40.20
2012,03,12,00,39,37.00
2012,03,12,00,40,33.80
2012,03,12,00,41,37.00
2012,03,12,00,42,27.40
2012,03,12,00,43,32.20
2012,03,12,00,44,43.50
2012,03,12,00,45,46.70
2012,03,12,00,46,41.80
2012,03,12,00,47,32.20
2012,03,12,00,48,38.60
2012,03,12,00,49,48.30
2012,03,12,00,50,33.80
2012,03,12,00,51,37.00
2012,03,12,00,52,37.00
2012,03,12,00,53,35.40
2012,03,12,00,54,38.60
2012,03,12,00,55,35.40
2012,03,12,00,56,35.40
2012,03,12,00,57,41.80
2012,03,12,00,58,35.40
2012,03,12,00,59,24.20
2012,03,12,01,00,27.40
2012,03,12,01,01,30.60
2012,03,12,01,02,30.60
2012,03,12,01,03,30.60
2012,03,12,01,04,35.40
2012,03,12,01,05,41.80
2012,03,12,01,06,30.60
2012,03,12,01,07,43.50
2012,03,12,01,08,40.20
2012,03,12,01,09,41.80
2012,03,12,01,10,32.20
2012,03,12,01,11,29.00
2012,03,12,01,12,38.60
2012,03,12,01,13,48.30
2012,03,12,01,14,30.60
2012,03,12,01,15,49.90
2012,03,12,01,16,35.40
2012,03,12,01,17,37.00
2012,03,12,01,18,35.40
2012,03,12,01,19,43.50
2012,03,12,01,20,40.20
2012,03,12,01,21,46.70
2012,03,12,01,22,49.90
2012,03,12,01,23,38.60
2012,03,12,01,24,37.00
2012,03,12,01,25,41.80
2012,03,12,01,26,43.50
2012,03,12,01,27,38.60
2012,03,12,01,28,51.50
2012,03,12,01,29,49.90
2012,03,12,01,30,40.20
2012,03,12,01,31,35.40
2012,03,12,01,32,51.50
2012,03,12,01,33,35.40
2012,03,12,01,34,32.20
2012,03,12,01,35,27.40
2012,03,12,01,36,35.40
2012,03,12,01,37,32.20
2012,03,12,01,38,38.60
2012,03,12,01,39,37.00
2012,03,12,01,40,35.40
2012,03,12,01,41,45.10
2012,03,12,01,42,53.10
2012,03,12,01,43,45.10
2012,03,12,01,44,38.60
2012,03,12,01,45,25.70
2012,03,12,01,46,38.60
2012,03,12,01,47,35.40
2012,03,12,01,48,33.80
2012,03,12,01,49,43.50
2012,03,12,01,50,29.00
2012,03,12,01,51,38.60
2012,03,12,01,52,40.20
2012,03,12,01,53,56.30
2012,03,12,01,54,46.70
2012,03,12,01,55,33.80
2012,03,12,01,56,51.50
2012,03,12,01,57,32.20
2012,03,12,01,58,41.80
2012,03,12,01,59,49.90
2012,03,12,02,00,48.30
2012,03,12,02,01,48.30
2012,03,12,02,02,48.30
2012,03,12,02,03,35.40
2012,03,12,02,04,46.70
2012,03,12,02,05,40.20
2012,03,12,02,06,40.20
2012,03,12,02,07,40.20
2012,03,12,02,08,45.10
2012,03,12,02,09,40.20
2012,03,12,02,10,40.20
2012,03,12,02,11,53.10
2012,03,12,02,12,37.00
2012,03,12,02,13,54.70
2012,03,12,02,14,46.70
2012,03,12,02,15,41.80
2012,03,12,02,16,41.80
2012,03,12,02,17,46.70
2012,03,12,02,18,40.20
2012,03,12,02,19,24.20
2012,03,12,02,20,35.40
2012,03,12,02,21,35.40
2012,03,12,02,22,40.20
2012,03,12,02,23,37.00
2012,03,12,02,24,41.80
2012,03,12,02,25,38.60
2012,03,12,02,26,40.20
2012,03,12,02,27,51.50
2012,03,12,02,28,35.40
2012,03,12,02,29,43.50
2012,03,12,02,30,38.60
2012,03,12,02,31,48.30
2012,03,12,02,32,40.20
2012,03,12,02,33,49.90
2012,03,12,02,34,45.10
2012,03,12,02,35,41.80
2012,03,12,02,36,43.50
2012,03,12,02,37,29.00
2012,03,12,02,38,46.70
2012,03,12,02,39,35.40
2012,03,12,02,40,38.60
2012,03,12,02,41,38.60
2012,03,12,02,42,40.20
2012,03,12,02,43,51.50
2012,03,12,02,44,41.80
2012,03,12,02,45,32.20
2012,03,12,02,46,51.50
2012,03,12,02,47,32.20
2012,03,12,02,48,46.70
2012,03,12,02,49,48.30
2012,03,12,02,50,45.10
2012,03,12,02,51,43.50
2012,03,12,02,52,37.00
2012,03,12,02,53,41.80
2012,03,12,02,54,53.10
2012,03,12,02,55,46.70
2012,03,12,02,56,48.30
2012,03,12,02,57,46.70
2012,03,12,02,58,27.40
2012,03,12,02,59,38.60
2012,03,12,03,00,41.80
2012,03,12,03,01,35.40
2012,03,12,03,02,49.90
2012,03,12,03,03,49.90
2012,03,12,03,04,46.70
2012,03,12,03,05,53.10
2012,03,12,03,06,38.60
2012,03,12,03,07,49.90
2012,03,12,03,08,40.20
2012,03,12,03,09,53.10
2012,03,12,03,10,41.80
2012,03,12,03,11,35.40
2012,03,12,03,12,30.60
2012,03,12,03,13,45.10
2012,03,12,03,14,49.90
2012,03,12,03,15,45.10
2012,03,12,03,16,38.60
2012,03,12,03,17,43.50
2012,03,12,03,18,38.60
2012,03,12,03,19,38.60
2012,03,12,03,20,35.40
2012,03,12,03,21,37.00
2012,03,12,03,22,57.90
2012,03,12,03,23,62.70
2012,03,12,03,24,51.50
2012,03,12,03,25,46.70
2012,03,12,03,26,40.20
2012,03,12,03,27,56.30
2012,03,12,03,28,54.70
2012,03,12,03,29,51.50
2012,03,12,03,30,54.70
2012,03,12,03,31,49.90
2012,03,12,03,32,53.10
2012,03,12,03,33,59.50
2012,03,12,03,34,64.40
2012,03,12,03,35,51.50
2012,03,12,03,36,35.40
2012,03,12,03,37,51.50
2012,03,12,03,38,51.50
2012,03,12,03,39,40.20
2012,03,12,03,40,38.60
2012,03,12,03,41,41.80
2012,03,12,03,42,41.80
2012,03,12,03,43,35.40
2012,03,12,03,44,46.70
2012,03,12,03,45,61.20
2012,03,12,03,46,59.50
2012,03,12,03,47,41.80
2012,03,12,03,48,43.50
2012,03,12,03,49,40.20
2012,03,12,03,50,54.70
2012,03,12,03,51,57.90
2012,03,12,03,52,57.90
2012,03,12,03,53,49.90
2012,03,12,03,54,41.80
2012,03,12,03,55,56.30
2012,03,12,03,56,56.30
2012,03,12,03,57,69.20
2012,03,12,03,58,48.30
2012,03,12,03,59,74.00
2012,03,12,04,00,59.50
2012,03,12,04,01,40.20
2012,03,12,04,02,56.30
2012,03,12,04,03,45.10
2012,03,12,04,04,46.70
2012,03,12,04,05,48.30
2012,03,12,04,06,53.10
2012,03,12,04,07,69.20
2012,03,12,04,08,56.30
2012,03,12,04,09,51.50
2012,03,12,04,10,64.40
2012,03,12,04,11,74.00
2012,03,12,04,12,61.20
2012,03,12,04,13,54.70
2012,03,12,04,14,53.10
2012,03,12,04,15,40.20
2012,03,12,04,16,54.70
2012,03,12,04,17,46.70
2012,03,12,04,18,51.50
2012,03,12,04,19,43.50
2012,03,12,04,20,57.90
2012,03,12,04,21,56.30
2012,03,12,04,22,51.50
2012,03,12,04,23,53.10
2012,03,12,04,24,45.10
2012,03,12,04,25,41.80
2012,03,12,04,26,56.30
2012,03,12,04,27,62.70
2012,03,12,04,28,49.90
2012,03,12,04,29,33.80
2012,03,12,04,30,45.10
2012,03,12,04,31,46.70
2012,03,12,04,32,53.10
2012,03,12,04,33,61.20
2012,03,12,04,34,41.80
2012,03,12,04,35,53.10
2012,03,12,04,36,45.10
2012,03,12,04,37,43.50
2012,03,12,04,38,49.90
2012,03,12,04,39,45.10
2012,03,12,04,40,33.80
2012,03,12,04,41,45.10
2012,03,12,04,42,53.10
2012,03,12,04,43,45.10
2012,03,12,04,44,33.80
2012,03,12,04,45,59.50
2012,03,12,04,46,33.80
2012,03,12,04,47,27.40
2012,03,12,04,48,46.70
2012,03,12,04,49,49.90
2012,03,12,04,50,59.50
2012,03,12,04,51,59.50
2012,03,12,04,52,53.10
2012,03,12,04,53,59.50
2012,03,12,04,54,53.10
2012,03,12,04,55,53.10
2012,03,12,04,56,43.50
2012,03,12,04,57,48.30
2012,03,12,04,58,51.50
2012,03,12,04,59,57.90
2012,03,12,05,00,62.70
2012,03,12,05,01,45.10
2012,03,12,05,02,48.30
2012,03,12,05,03,51.50
2012,03,12,05,04,70.80
2012,03,12,05,05,40.20
2012,03,12,05,06,49.90
2012,03,12,05,07,38.60
2012,03,12,05,08,49.90
2012,03,12,05,09,57.90
2012,03,12,05,10,53.10
2012,03,12,05,11,53.10
2012,03,12,05,12,64.40
2012,03,12,05,13,54.70
2012,03,12,05,14,53.10
2012,03,12,05,15,41.80
2012,03,12,05,16,46.70
2012,03,12,05,17,45.10
2012,03,12,05,18,53.10
2012,03,12,05,19,54.70
2012,03,12,05,20,45.10
2012,03,12,05,21,48.30
2012,03,12,05,22,54.70
2012,03,12,05,23,43.50
2012,03,12,05,24,51.50
2012,03,12,05,25,41.80
2012,03,12,05,26,64.40
2012,03,12,05,27,32.20
2012,03,12,05,28,48.30
2012,03,12,05,29,49.90
2012,03,12,05,30,35.40
2012,03,12,05,31,57.90
2012,03,12,05,32,54.70
2012,03,12,05,33,51.50
2012,03,12,05,34,41.80
2012,03,12,05,35,45.10
2012,03,12,05,36,53.10
2012,03,12,05,37,48.30
2012,03,12,05,38,53.10
2012,03,12,05,39,45.10
2012,03,12,05,40,54.70
2012,03,12,05,41,56.30
2012,03,12,05,42,59.50
2012,03,12,05,43,33.80
2012,03,12,05,44,37.00
2012,03,12,05,45,53.10
2012,03,12,05,46,56.30
2012,03,12,05,47,53.10
2012,03,12,05,48,43.50
2012,03,12,05,49,54.70
2012,03,12,05,50,51.50
2012,03,12,05,51,56.30
2012,03,12,05,52,53.10
2012,03,12,05,53,59.50
2012,03,12,05,54,53.10
2012,03,12,05,55,57.90
2012,03,12,05,56,48.30
2012,03,12,05,57,43.50
2012,03,12,05,58,45.10
2012,03,12,05,59,56.30
2012,03,12,06,00,35.40
2012,03,12,06,01,61.20
2012,03,12,06,02,57.90
2012,03,12,06,03,54.70
2012,03,12,06,04,53.10
2012,03,12,06,05,45.10
2012,03,12,06,06,48.30
2012,03,12,06,07,43.50
2012,03,12,06,08,61.20
2012,03,12,06,09,43.50
2012,03,12,06,10,49.90
2012,03,12,06,11,53.10
2012,03,12,06,12,74.00
2012,03,12,06,13,54.70
2012,03,12,06,14,40.20
2012,03,12,06,15,33.80
2012,03,12,06,16,37.00
2012,03,12,06,17,43.50
2012,03,12,06,18,64.40
2012,03,12,06,19,69.20
2012,03,12,06,20,61.20
2012,03,12,06,21,51.50
2012,03,12,06,22,53.10
2012,03,12,06,23,66.00
2012,03,12,06,24,43.50
2012,03,12,06,25,41.80
2012,03,12,06,26,41.80
2012,03,12,06,27,54.70
2012,03,12,06,28,38.60
2012,03,12,06,29,46.70
2012,03,12,06,30,48.30
2012,03,12,06,31,32.20
2012,03,12,06,32,45.10
2012,03,12,06,33,61.20
2012,03,12,06,34,64.40
2012,03,12,06,35,45.10
2012,03,12,06,36,49.90
2012,03,12,06,37,56.30
2012,03,12,06,38,46.70
2012,03,12,06,39,62.70
2012,03,12,06,40,61.20
2012,03,12,06,41,32.20
2012,03,12,06,42,48.30
2012,03,12,06,43,54.70
2012,03,12,06,44,41.80
2012,03,12,06,45,51.50
2012,03,12,06,46,48.30
2012,03,12,06,47,51.50
2012,03,12,06,48,40.20
2012,03,12,06,49,40.20
2012,03,12,06,50,40.20
2012,03,12,06,51,45.10
2012,03,12,06,52,54.70
2012,03,12,06,53,43.50
2012,03,12,06,54,54.70
2012,03,12,06,55,48.30
2012,03,12,06,56,62.70
2012,03,12,06,57,43.50
2012,03,12,06,58,40.20
2012,03,12,06,59,51.50
2012,03,12,07,00,64.40
2012,03,12,07,01,37.00
2012,03,12,07,02,53.10
2012,03,12,07,03,64.40
2012,03,12,07,04,53.10
2012,03,12,07,05,64.40
2012,03,12,07,06,46.70
2012,03,12,07,07,67.60
2012,03,12,07,08,56.30
2012,03,12,07,09,61.20
2012,03,12,07,10,59.50
2012,03,12,07,11,51.50
2012,03,12,07,12,54.70
2012,03,12,07,13,51.50
2012,03,12,07,14,41.80
2012,03,12,07,15,62.70
2012,03,12,07,16,51.50
2012,03,12,07,17,72.40
2012,03,12,07,18,59.50
2012,03,12,07,19,70.80
2012,03,12,07,20,51.50
2012,03,12,07,21,43.50
2012,03,12,07,22,61.20
2012,03,12,07,23,67.60
2012,03,12,07,24,49.90
2012,03,12,07,25,56.30
2012,03,12,07,26,64.40
2012,03,12,07,27,64.40
2012,03,12,07,28,49.90
2012,03,12,07,29,64.40
2012,03,12,07,30,48.30
2012,03,12,07,31,40.20
2012,03,12,07,32,54.70
2012,03,12,07,33,64.40
2012,03,12,07,34,43.50
2012,03,12,07,35,54.70
2012,03,12,07,36,48.30
2012,03,12,07,37,64.40
2012,03,12,07,38,56.30
2012,03,12,07,39,64.40
2012,03,12,07,40,54.70
2012,03,12,07,41,61.20
2012,03,12,07,42,61.20
2012,03,12,07,43,70.80
2012,03,12,07,44,64.40
2012,03,12,07,45,49.90
2012,03,12,07,46,69.20
2012,03,12,07,47,46.70
2012,03,12,07,48,51.50
2012,03,12,07,49,30.60
2012,03,12,07,50,64.40
2012,03,12,07,51,57.90
2012,03,12,07,52,48.30
2012,03,12,07,53,59.50
2012,03,12,07,54,46.70
2012,03,12,07,55,57.90
2012,03,12,07,56,74.00
2012,03,12,07,57,54.70
2012,03,12,07,58,59.50
2012,03,12,07,59,57.90
2012,03,12,08,00,74.00
2012,03,12,08,01,49.90
2012,03,12,08,02,64.40
2012,03,12,08,03,59.50
2012,03,12,08,04,77.30
2012,03,12,08,05,62.70
2012,03,12,08,06,48.30
2012,03,12,08,07,66.00
2012,03,12,08,08,62.70
2012,03,12,08,09,59.50
2012,03,12,08,10,49.90
2012,03,12,08,11,51.50
2012,03,12,08,12,54.70
2012,03,12,08,13,54.70
2012,03,12,08,14,75.60
2012,03,12,08,15,67.60
2012,03,12,08,16,48.30
2012,03,12,08,17,54.70
2012,03,12,08,18,53.10
2012,03,12,08,19,57.90
2012,03,12,08,20,62.70
2012,03,12,08,21,53.10
2012,03,12,08,22,54.70
2012,03,12,08,23,51.50
2012,03,12,08,24,56.30
2012,03,12,08,25,46.70
2012,03,12,08,26,54.70
2012,03,12,08,27,53.10
2012,03,12,08,28,64.40
2012,03,12,08,29,49.90
2012,03,12,08,30,41.80
2012,03,12,08,31,53.10
2012,03,12,08,32,54.70
2012,03,12,08,33,51.50
2012,03,12,08,34,59.50
2012,03,12,08,35,62.70
2012,03,12,08,36,56.30
2012,03,12,08,37,64.40
2012,03,12,08,38,53.10
2012,03,12,08,39,57.90
2012,03,12,08,40,59.50
2012,03,12,08,41,51.50
2012,03,12,08,42,53.10
2012,03,12,08,43,53.10
2012,03,12,08,44,51.50
2012,03,12,08,45,40.20
2012,03,12,08,46,33.80
2012,03,12,08,47,46.70
2012,03,12,08,48,59.50
2012,03,12,08,49,64.40
2012,03,12,08,50,61.20
2012,03,12,08,51,54.70
2012,03,12,08,52,74.00
2012,03,12,08,53,70.80
2012,03,12,08,54,74.00
2012,03,12,08,55,37.00
2012,03,12,08,56,53.10
2012,03,12,08,57,59.50
2012,03,12,08,58,74.00
2012,03,12,08,59,62.70
2012,03,12,09,00,66.00
2012,03,12,09,01,82.10
2012,03,12,09,02,66.00
2012,03,12,09,03,54.70
2012,03,12,09,04,74.00
2012,03,12,09,05,59.50
2012,03,12,09,06,56.30
2012,03,12,09,07,54.70
2012,03,12,09,08,48.30
2012,03,12,09,09,40.20
2012,03,12,09,10,67.60
2012,03,12,09,11,56.30
2012,03,12,09,12,74.00
2012,03,12,09,13,53.10
2012,03,12,09,14,61.20
2012,03,12,09,15,61.20
2012,03,12,09,16,62.70
2012,03,12,09,17,69.20
2012,03,12,09,18,64.40
2012,03,12,09,19,61.20
2012,03,12,09,20,59.50
2012,03,12,09,21,53.10
2012,03,12,09,22,56.30
2012,03,12,09,23,67.60
2012,03,12,09,24,56.30
2012,03,12,09,25,54.70
2012,03,12,09,26,49.90
2012,03,12,09,27,53.10
2012,03,12,09,28,86.90
2012,03,12,09,29,43.50
2012,03,12,09,30,51.50
2012,03,12,09,31,59.50
2012,03,12,09,32,51.50
2012,03,12,09,33,70.80
2012,03,12,09,34,41.80
2012,03,12,09,35,54.70
2012,03,12,09,36,62.70
2012,03,12,09,37,53.10
2012,03,12,09,38,72.40
2012,03,12,09,39,53.10
2012,03,12,09,40,53.10
2012,03,12,09,41,59.50
2012,03,12,09,42,53.10
2012,03,12,09,43,59.50
2012,03,12,09,44,69.20
2012,03,12,09,45,48.30
2012,03,12,09,46,70.80
2012,03,12,09,47,70.80
2012,03,12,09,48,46.70
2012,03,12,09,49,64.40
2012,03,12,09,50,56.30
2012,03,12,09,51,66.00
2012,03,12,09,52,46.70
2012,03,12,09,53,43.50
2012,03,12,09,54,46.70
2012,03,12,09,55,56.30
2012,03,12,09,56,51.50
2012,03,12,09,57,51.50
2012,03,12,09,58,41.80
2012,03,12,09,59,56.30
2012,03,12,10,00,53.10
2012,03,12,10,01,62.70
2012,03,12,10,02,53.10
2012,03,12,10,03,40.20
2012,03,12,10,04,43.50
2012,03,12,10,05,46.70
2012,03,12,10,06,56.30
2012,03,12,10,07,54.70
2012,03,12,10,08,45.10
2012,03,12,10,09,41.80
2012,03,12,10,10,33.80
2012,03,12,10,11,35.40
2012,03,12,10,12,64.40
2012,03,12,10,13,62.70
2012,03,12,10,14,48.30
2012,03,12,10,15,53.10
2012,03,12,10,16,53.10
2012,03,12,10,17,53.10
2012,03,12,10,18,54.70
2012,03,12,10,19,45.10
2012,03,12,10,20,43.50
2012,03,12,10,21,41.80
2012,03,12,10,22,43.50
2012,03,12,10,23,48.30
2012,03,12,10,24,53.10
2012,03,12,10,25,53.10
2012,03,12,10,26,45.10
2012,03,12,10,27,62.70
2012,03,12,10,28,41.80
2012,03,12,10,29,37.00
2012,03,12,10,30,37.00
2012,03,12,10,31,38.60
2012,03,12,10,32,51.50
2012,03,12,10,33,48.30
2012,03,12,10,34,48.30
2012,03,12,10,35,43.50
2012,03,12,10,36,41.80
2012,03,12,10,37,41.80
2012,03,12,10,38,49.90
2012,03,12,10,39,45.10
2012,03,12,10,40,33.80
2012,03,12,10,41,43.50
2012,03,12,10,42,35.40
2012,03,12,10,43,43.50
2012,03,12,10,44,37.00
2012,03,12,10,45,48.30
2012,03,12,10,46,40.20
2012,03,12,10,47,41.80
2012,03,12,10,48,32.20
2012,03,12,10,49,43.50
2012,03,12,10,50,45.10
2012,03,12,10,51,45.10
2012,03,12,10,52,48.30
2012,03,12,10,53,37.00
2012,03,12,10,54,33.80
2012,03,12,10,55,43.50
2012,03,12,10,56,35.40
2012,03,12,10,57,30.60
2012,03,12,10,58,40.20
2012,03,12,10,59,41.80
2012,03,12,11,00,38.60
2012,03,12,11,01,33.80
2012,03,12,11,02,43.50
2012,03,12,11,03,41.80
2012,03,12,11,04,41.80
2012,03,12,11,05,37.00
2012,03,12,11,06,49.90
2012,03,12,11,07,35.40
2012,03,12,11,08,38.60
2012,03,12,11,09,27.40
2012,03,12,11,10,33.80
2012,03,12,11,11,35.40
2012,03,12,11,12,35.40
2012,03,12,11,13,29.00
2012,03,12,11,14,37.00
2012,03,12,11,15,37.00
2012,03,12,11,16,48.30
2012,03,12,11,17,37.00
2012,03,12,11,18,38.60
2012,03,12,11,19,53.10
2012,03,12,11,20,53.10
2012,03,12,11,21,30.60
2012,03,12,11,22,35.40
2012,03,12,11,23,40.20
2012,03,12,11,24,37.00
2012,03,12,11,25,30.60
2012,03,12,11,26,29.00
2012,03,12,11,27,30.60
2012,03,12,11,28,30.60
2012,03,12,11,29,40.20
2012,03,12,11,30,35.40
2012,03,12,11,31,33.80
2012,03,12,11,32,43.50
2012,03,12,11,33,43.50
2012,03,12,11,34,38.60
2012,03,12,11,35,32.20
2012,03,12,11,36,24.20
2012,03,12,11,37,51.50
2012,03,12,11,38,29.00
2012,03,12,11,39,45.10
2012,03,12,11,40,46.70
2012,03,12,11,41,29.00
2012,03,12,11,42,32.20
2012,03,12,11,43,27.40
2012,03,12,11,44,37.00
2012,03,12,11,45,30.60
2012,03,12,11,46,33.80
2012,03,12,11,47,30.60
2012,03,12,11,48,20.90
2012,03,12,11,49,24.20
2012,03,12,11,50,37.00
2012,03,12,11,51,30.60
2012,03,12,11,52,19.30
2012,03,12,11,53,35.40
2012,03,12,11,54,32.20
2012,03,12,11,55,24.20
2012,03,12,11,56,30.60
2012,03,12,11,57,32.20
2012,03,12,11,58,25.70
2012,03,12,11,59,22.50
2012,03,12,12,00,17.70
2012,03,12,12,01,33.80
2012,03,12,12,02,29.00
2012,03,12,12,03,27.40
2012,03,12,12,04,29.00
2012,03,12,12,05,27.40
2012,03,12,12,06,30.60
2012,03,12,12,07,33.80
2012,03,12,12,08,22.50
2012,03,12,12,09,25.70
2012,03,12,12,10,29.00
2012,03,12,12,11,30.60
2012,03,12,12,12,33.80
2012,03,12,12,13,24.20
2012,03,12,12,14,24.20
2012,03,12,12,15,29.00
2012,03,12,12,16,29.00
2012,03,12,12,17,24.20
2012,03,12,12,18,32.20
2012,03,12,12,19,25.70
2012,03,12,12,20,20.90
2012,03,12,12,21,24.20
2012,03,12,12,22,25.70
2012,03,12,12,23,16.10
2012,03,12,12,24,17.70
2012,03,12,12,25,16.10
2012,03,12,12,26,24.20
2012,03,12,12,27,24.20
2012,03,12,12,28,29.00
2012,03,12,12,29,20.90
2012,03,12,12,30,27.40
2012,03,12,12,31,16.10
2012,03,12,12,32,19.30
2012,03,12,12,33,25.70
2012,03,12,12,34,8.10
2012,03,12,12,35,17.70
2012,03,12,12,36,29.00
2012,03,12,12,37,19.30
2012,03,12,12,38,14.50
2012,03,12,12,39,17.70
2012,03,12,12,40,20.90
2012,03,12,12,41,14.50
2012,03,12,12,42,9.60
2012,03,12,12,43,14.50
2012,03,12,12,44,11.30
2012,03,12,12,45,6.40
2012,03,12,12,46,6.40
2012,03,12,12,47,8.10
2012,03,12,12,48,19.30
2012,03,12,12,49,16.10
2012,03,12,12,50,14.50
2012,03,12,12,51,17.70
2012,03,12,12,52,11.30
2012,03,12,12,53,11.30
2012,03,12,12,54,16.10
2012,03,12,12,55,12.90
2012,03,12,12,56,20.90
2012,03,12,12,57,14.50
2012,03,12,12,58,11.30
2012,03,12,12,59,11.30
2012,03,12,13,00,8.10
2012,03,12,13,01,9.60
2012,03,12,13,02,6.40
2012,03,12,13,03,4.80
2012,03,12,13,04,4.80
2012,03,12,13,05,6.40
2012,03,12,13,06,6.40
2012,03,12,13,07,4.80
2012,03,12,13,08,8.10
2012,03,12,13,09,6.40
2012,03,12,13,10,4.80
2012,03,12,13,11,6.40
2012,03,12,13,12,4.80
2012,03,12,13,13,3.20
2012,03,12,13,14,1.60
2012,03,12,13,15,6.40
2012,03,12,13,16,6.40
2012,03,12,13,17,4.80
2012,03,12,13,18,1.60
2012,03,12,13,19,4.80
2012,03,12,13,20,8.10
2012,03,12,13,21,6.40
2012,03,12,13,22,3.20
2012,03,12,13,24,4.80
2012,03,12,13,25,4.80
2012,03,12,13,26,3.20
2012,03,12,13,27,1.60
2012,03,12,13,28,1.60
2012,03,12,13,29,3.20
2012,03,12,13,30,1.60
2012,03,12,13,31,3.20
2012,03,12,13,32,4.80
2012,03,12,13,33,4.80
2012,03,12,13,34,4.80
2012,03,12,13,35,6.40
2012,03,12,13,36,1.60
2012,03,12,13,37,3.20
2012,03,12,13,38,4.80
2012,03,12,13,39,4.80
2012,03,12,13,40,3.20
2012,03,12,13,41,3.20
2012,03,12,13,42,4.80
2012,03,12,13,43,4.80
2012,03,12,13,44,3.20
2012,03,12,13,45,4.80
2012,03,12,13,46,4.80
2012,03,12,13,47,4.80
2012,03,12,13,48,4.80
2012,03,12,13,49,4.80
2012,03,12,13,50,3.20
2012,03,12,13,52,1.60
2012,03,12,13,53,3.20
2012,03,12,13,54,4.80
2012,03,12,13,55,9.60
2012,03,12,13,56,9.60
2012,03,12,13,57,6.40
2012,03,12,13,59,3.20
2012,03,12,14,00,3.20
2012,03,12,14,01,3.20
2012,03,12,14,02,3.20
2012,03,12,14,03,3.20
2012,03,12,14,04,3.20
2012,03,12,14,05,1.60
2012,03,12,14,06,1.60
2012,03,12,14,07,3.20
2012,03,12,14,08,6.40
2012,03,12,14,09,8.10
2012,03,12,14,10,6.40
2012,03,12,14,11,4.80
2012,03,12,14,12,8.10
2012,03,12,14,13,6.40
2012,03,12,14,14,6.40
2012,03,12,14,15,4.80
2012,03,12,14,16,3.20
2012,03,12,14,17,3.20
2012,03,12,14,18,4.80
2012,03,12,14,20,1.60
2012,03,12,14,21,4.80
2012,03,12,14,22,4.80
2012,03,12,14,23,3.20
2012,03,12,14,24,3.20
2012,03,12,14,25,3.20
2012,03,12,14,26,1.60
2012,03,12,14,27,4.80
2012,03,12,14,28,4.80
2012,03,12,14,29,6.40
2012,03,12,14,30,4.80
2012,03,12,14,31,6.40
2012,03,12,14,32,4.80
2012,03,12,14,33,6.40
2012,03,12,14,34,8.10
2012,03,12,14,35,9.60
2012,03,12,14,36,8.10
2012,03,12,14,37,9.60
2012,03,12,14,38,14.50
2012,03,12,14,39,9.60
2012,03,12,14,40,6.40
2012,03,12,14,41,3.20
2012,03,12,14,42,1.60
2012,03,12,14,43,6.40
2012,03,12,14,44,8.10
2012,03,12,14,45,3.20
2012,03,12,14,46,1.60
2012,03,12,14,47,4.80
2012,03,12,14,48,9.60
2012,03,12,14,49,8.10
2012,03,12,14,50,8.10
2012,03,12,14,51,8.10
2012,03,12,14,52,8.10
2012,03,12,14,53,6.40
2012,03,12,14,54,6.40
2012,03,12,14,55,6.40
2012,03,12,14,56,6.40
2012,03,12,14,57,6.40
2012,03,12,14,58,8.10
2012,03,12,14,59,8.10
2012,03,12,15,00,9.60
2012,03,12,15,01,8.10
2012,03,12,15,02,8.10
2012,03,12,15,03,8.10
2012,03,12,15,04,4.80
2012,03,12,15,05,3.20
2012,03,12,15,06,9.60
2012,03,12,15,07,9.60
2012,03,12,15,08,8.10
2012,03,12,15,09,8.10
2012,03,12,15,10,4.80
2012,03,12,15,11,6.40
2012,03,12,15,12,4.80
2012,03,12,15,13,4.80
2012,03,12,15,14,3.20
2012,03,12,15,15,3.20
2012,03,12,15,16,1.60
2012,03,12,15,17,3.20
2012,03,12,15,18,3.20
2012,03,12,15,19,1.60
2012,03,12,15,20,4.80
2012,03,12,15,21,3.20
2012,03,12,15,22,1.60
2012,03,12,15,24,3.20
2012,03,12,15,25,3.20
2012,03,12,15,26,3.20
2012,03,12,15,27,3.20
2012,03,12,15,28,3.20
2012,03,12,15,29,4.80
2012,03,12,15,30,4.80
2012,03,12,15,31,4.80
2012,03,12,15,32,4.80
2012,03,12,15,33,4.80
2012,03,12,15,34,4.80
2012,03,12,15,35,1.60
2012,03,12,15,36,3.20
2012,03,12,15,37,4.80
2012,03,12,15,38,3.20
2012,03,12,15,39,3.20
2012,03,12,15,40,4.80
2012,03,12,15,41,3.20
2012,03,12,15,42,1.60
2012,03,12,15,44,1.60
2012,03,12,15,45,1.60
2012,03,12,15,53,3.20
2012,03,12,15,54,3.20
2012,03,12,15,55,4.80
2012,03,12,15,56,3.20
2012,03,12,15,57,6.40
2012,03,12,15,58,3.20
2012,03,12,15,59,3.20
2012,03,12,16,00,3.20
2012,03,12,16,01,1.60
2012,03,12,16,02,1.60
2012,03,12,16,03,3.20
2012,03,12,16,04,1.60
2012,03,12,16,05,3.20
2012,03,12,16,06,3.20
2012,03,12,16,14,1.60
2012,03,12,16,15,1.60
2012,03,12,16,18,3.20
2012,03,12,16,19,1.60
2012,03,12,16,20,3.20
2012,03,12,16,21,3.20
2012,03,12,16,22,1.60
2012,03,12,16,23,1.60
2012,03,12,16,24,1.60
2012,03,12,16,25,1.60
2012,03,12,16,26,4.80
2012,03,12,16,27,3.20
2012,03,12,16,28,1.60
2012,03,12,16,29,3.20
2012,03,12,16,30,3.20
2012,03,12,16,31,4.80
2012,03,12,16,32,3.20
2012,03,12,16,33,1.60
2012,03,12,16,34,3.20
2012,03,12,16,35,3.20
2012,03,12,16,36,4.80
2012,03,12,16,37,4.80
2012,03,12,16,38,4.80
2012,03,12,16,39,4.80
2012,03,12,16,40,4.80
2012,03,12,16,41,3.20
2012,03,12,16,42,4.80
2012,03,12,16,43,4.80
2012,03,12,16,44,1.60
2012,03,12,16,45,3.20
2012,03,12,16,46,3.20
2012,03,12,16,49,1.60
2012,03,12,16,50,3.20
2012,03,12,16,51,4.80
2012,03,12,16,52,1.60
2012,03,12,16,53,1.60
2012,03,12,16,54,4.80
2012,03,12,16,55,4.80
2012,03,12,16,56,11.30
2012,03,12,16,57,9.60
2012,03,12,16,58,9.60
2012,03,12,16,59,6.40
2012,03,12,17,00,8.10
2012,03,12,17,01,8.10
2012,03,12,17,02,11.30
2012,03,12,17,03,9.60
2012,03,12,17,04,9.60
2012,03,12,17,05,6.40
2012,03,12,17,06,8.10
2012,03,12,17,07,6.40
2012,03,12,17,08,9.60
2012,03,12,17,09,14.50
2012,03,12,17,10,9.60
2012,03,12,17,11,6.40
2012,03,12,17,12,11.30
2012,03,12,17,13,9.60
2012,03,12,17,14,3.20
2012,03,12,17,15,9.60
2012,03,12,17,16,11.30
2012,03,12,17,17,11.30
2012,03,12,17,18,8.10
2012,03,12,17,19,4.80
2012,03,12,17,20,6.40
2012,03,12,17,21,8.10
2012,03,12,17,22,11.30
2012,03,12,17,23,4.80
2012,03,12,17,24,3.20
2012,03,12,17,25,1.60
2012,03,12,17,26,1.60
2012,03,12,17,27,6.40
2012,03,12,17,28,4.80
2012,03,12,17,29,4.80
2012,03,12,17,30,4.80
2012,03,12,17,31,3.20
2012,03,12,17,32,4.80
2012,03,12,17,33,6.40
2012,03,12,17,34,6.40
2012,03,12,17,35,4.80
2012,03,12,17,36,3.20
2012,03,12,17,37,3.20
2012,03,12,17,38,4.80
2012,03,12,17,39,3.20
2012,03,12,17,40,1.60
2012,03,12,17,41,4.80
2012,03,12,17,42,3.20
2012,03,12,17,43,6.40
2012,03,12,17,44,4.80
2012,03,12,17,45,4.80
2012,03,12,17,46,8.10
2012,03,12,17,47,6.40
2012,03,12,17,48,4.80
2012,03,12,17,49,3.20
2012,03,12,17,52,6.40
2012,03,12,17,53,6.40
2012,03,12,17,54,8.10
2012,03,12,17,55,3.20
2012,03,12,17,56,4.80
2012,03,12,17,57,4.80